Regional Weather Roundup
Issued by NWS Upton, NY

Current Version | Previous Version | Text Only | Print | Product List | Glossary On
Versions: 1 2 3 4 5 6 7 8 9 10 11 12 13 14 15 16 17 18 19 20 21 22 23 24 25 26 27 28 29 30 31 32 33 34 35 36 37 38 39 40 41 42 43 44 45 46 47 48 49 50
000
ASUS41 KOKX 230205
RWROKX

REGIONAL WEATHER ROUNDUP
NATIONAL WEATHER SERVICE NEW YORK NY
1000 PM EDT MON SEP 22 2014

NOTE: "FAIR" INDICATES FEW OR NO CLOUDS BELOW 12,000 FEET WITH NO
SIGNIFICANT WEATHER AND/OR OBSTRUCTIONS TO VISIBILITY.

NYZ071-072-176-178-NJZ106-104-230300-
NEW YORK CITY METRO AREA


CITY           SKY/WX    TMP DP  RH WIND       PRES   REMARKS
CENTRAL PARK   PTCLDY    58  38  47 VRB6      30.16R
LAGUARDIA APRT PTCLDY    59  43  55 NW17G24   30.13R
KENNEDY INTL   MOCLDY    59  39  47 NW18G26   30.13R
NEWARK/LIBERTY PTCLDY    59  39  47 NW14G24   30.15R
BRNX BOT. GARD   N/A     55  39  54 NW5       30.14R
TETERBORO      PTCLDY    57  38  48 NW7       30.13R
$$

NYZ177-179-078>081-230300-
LONG ISLAND NEW YORK

CITY           SKY/WX    TMP DP  RH WIND       PRES   REMARKS
FARMINGDALE    PTCLDY    58  40  51 NW9       30.12R
ISLIP          PTCLDY    57  40  52 NW12      30.10R
SHIRLEY        PTCLDY    57  41  55 NW9       30.11R
WESTHAMPTON    PTCLDY    58  41  53 NW12G24   30.11R
MONTAUK POINT    N/A     59  43  55 NW18G26   30.09R
$$

NYZ052-065-067-230300-
HUDSON VALLEY

CITY           SKY/WX    TMP DP  RH WIND       PRES   REMARKS
WHITE PLAINS   CLEAR     54  38  54 NW12      30.12R
NEWBURGH       CLEAR     52  41  66 NW9       30.14R
MONTGOMERY     PTCLDY    49  39  68 NW6       30.14R
POUGHKEEPSIE   CLEAR     50  41  71 NW7       30.13R
ALBANY         PTCLDY    50  40  68 W3        30.12R
$$

NJZ001-105-106-008-010-013-015-019>022-104-230300-
NEW JERSEY

CITY           SKY/WX    TMP DP  RH WIND       PRES   REMARKS
NEWARK/LIBERTY PTCLDY    59  39  47 NW14G24   30.15R
TETERBORO      PTCLDY    57  38  48 NW7       30.13R
CALDWELL       CLEAR     55  38  52 NW5       30.15R
MORRISTOWN     NOT AVBL
SOMERVILLE     PTCLDY    55  40  56 N5        30.14R
LINDEN         FAIR      62  44  52 N8        30.16R
SUSSEX         PTCLDY    50  41  71 CALM      30.16R
ANDOVER          N/A     51  39  63 N6        30.16R
TRENTON        PTCLDY    54  43  66 N6        30.15R
MILLVILLE      CLEAR     59  45  59 NW9       30.16R
ATLANTIC CITY  CLEAR     56  50  80 W5        30.14R
WRIGHTSTOWN    PTCLDY    53  45  73 N6        30.13R
TOMS RIVER     CLEAR     55  43  62 NW3       30.14R
BELMAR         PTCLDY    57  41  54 NW10      30.14R
$$

PAZ047>061-062-071-230300-
EASTERN PENNSYLVANIA

CITY           SKY/WX    TMP DP  RH WIND       PRES   REMARKS
PHILADELPHIA   MOCLDY    61  42  49 NW14      30.17R
ALLENTOWN      CLEAR     53  40  61 N5        30.17R
SCRANTON       CLOUDY    53  40  61 W5        30.19R
$$

CTZ002-004>006-009-010-012-RIZ004-006-007-MAZ004-011-015-230300-
SOUTHERN NEW ENGLAND
 IN CT

CITY           SKY/WX    TMP DP  RH WIND       PRES   REMARKS
BRADLEY INTL   PTCLDY    52  38  58 NW9       30.10R
HARTFORD       PTCLDY    55  38  52 VRB7      30.11R
DANBURY        CLEAR     50  39  66 CALM      30.13R
WTRBRY/OXFORD  CLEAR     50  37  62 N9G16     30.12R
BRIDGEPORT     PTCLDY    56  41  57 NW8       30.12R
MERIDEN        CLEAR     53  40  61 NW6       30.11R
NEW HAVEN      CLEAR     57  41  55 N6        30.11R
CHESTER        FAIR      54  39  58 NW8       30.10R
GROTON         PTCLDY    54  40  59 NW16      30.08R
WILLIMANTIC    CLEAR     52  39  61 VRB6      30.09R

 IN RI

CITY           SKY/WX    TMP DP  RH WIND       PRES   REMARKS
PROVIDENCE     PTCLDY    54  38  54 NW10      30.08R
BLOCK ISLAND   CLEAR     55  39  54 NW15G28   30.07R
WESTERLY       CLEAR     55  39  54 N16G22    30.08R

 IN MA

CITY           SKY/WX    TMP DP  RH WIND       PRES   REMARKS
BOSTON         CLEAR     56  40  55 W13G23    30.05R
WORCESTER      CLEAR     47  38  71 W8        30.06R
WESTFIELD      CLEAR     53  37  54 VRB7      30.09R
PROVINCETOWN   CLEAR     61  45  55 W18G26    30.02R
NANTUCKET      CLEAR     63  46  54 NW16G22   30.01R
$$

ANZ330-335-338-340-345-350-353-355-230300-
COASTAL MARINE OBSERVATIONS


STATION/POSITION TIME  SKY/WX   TEMP    WIND        PRES    VSBY  WAVE
                                AIR SEA DIR/SP/G                  HT/PER
                 (UTC)          (F)     (DEG/KT/KT) (MB)    (MI)  (FT/S)
NY HARB ENTRANCE 0200            62 69  330/ 19/ 25 1019.7          4/10
4S FIRE IS       0200               69                N/A           5/10
20S FIRE ISLAND  0200            62 68  330/ 21/ 27 1018.8          5/ 5
23SW MTP         0200                                 N/A           6/10
HUDSON CANYON    0200            67 70  320/ 17/ 21 1018.1          6/10
EXECUTION ROCKS  0200            60 69  310/ 16/ 21   N/A
WESTERN LI SOUND 0200            60     310/ 14/ 21   N/A           1
CENTRAL LI SOUND 0100            60 69  330/ 17/ 21   N/A           3/ 5
EASTERN LI SOUND 0100            59 67  340/ 17/ 23   N/A
ROBBINS REEF     0200            59     330/ 17/ 22 1018.9
$$


>>>>>>>>>>>>>>>>>>>>>>>>>>>> KEY <<<<<<<<<<<<<<<<<<<<<<<<<<<
>                                                          <
>     SKY/WX - SKY CONDITION/PRESENT WEATHER               <
>     TMP    - TEMPERATURE IN FAHRENHEIT                   <
>     DP     - DEWPOINT IN FAHRENHEIT                      <
>     RH     - RELATIVE HUMIDITY IN PERCENT                <
>     WIND   - DIRECTION AND SPEED IN MPH                  <
>     PRES   - MEAN SEA LEVEL PRESSURE IN INCHES OF HG     <
>     WCI    - WIND CHILL INDEX                            <
>     VSB    - VISIBILITY IN MILES                         <
>     HX     - HEAT INDEX                                  <
>     TC     - TEMPERATURE IN CELSIUS                      <
>     VRB    - VARIABLE WIND DIRECTION                     <
>                                                          <
>>>>>>>>>>>>>>>>>>>>>>>>>>>> KEY <<<<<<<<<<<<<<<<<<<<<<<<<<<





USA.gov is the U.S. government's official web portal to all federal, state and local government web resources and services.